There are multiple Weather-warnings   Click here for more information


Meteo18 Weather Cam more information Meteo18 Weather Cam


Thunder radar more information blitzortung!


warning for Snow/Ice more information rain snow radar


Visit our other weather sites:

Template documentation
and downloads

And another site



Weather Underground History page Text

Daily Summary for January 17, 2018 Units:  English    Metric   Both
« Previous Day
Next Day »
Daily Weekly Monthly Yearly Custom
  High: Low: Average:
Temperature: TemperatureC °F 3.1 °F 5.5 °F
Dew Point: DewpointC °F 0.9 °F 2 °F
Humidity: Humidity % 64 % 78 %
Wind Speed: WindSpeedKMH mph 1.4 mph 16.6 mph
Wind Gust: WindSpeedGustKMH mph - -
Wind:- - West
Pressure: PressurehPa in 1006.0 in -
Precipitation: 2.0 in    
Historical Graphs
 
 
Tabular Data for January 17, 2018
Time Temperature Dew Point Pressure Wind Wind Speed Wind Gust Humidity Rainfall Rate (Hourly)
TemperatureC °F DewpointC °F PressurehPa in Calm     Humidity % HourlyPrecipMM in
00:01 7.5 °F 4.6 °F 1006.0 in West 25.9 mph 29.0 mph 82 % 0.0 in
00:07 7.4 °F 4.5 °F 1006.0 in West 24.1 mph 37.0 mph 82 % 0.0 in
00:17 7.5 °F 4.3 °F 1006.0 in South 11.1 mph 45.1 mph 80 % 0.0 in
00:27 7.2 °F 4.0 °F 1006.0 in West 27.4 mph 38.6 mph 80 % 0.0 in
00:33 6.9 °F 3.9 °F 1006.3 in West 28.8 mph 40.2 mph 81 % 0.0 in
00:39 6.7 °F 3.8 °F 1006.3 in WNW 20.9 mph 33.8 mph 82 % 0.0 in
00:45 6.7 °F 4.0 °F 1006.3 in West 35.2 mph 35.4 mph 83 % 0.0 in
00:51 6.8 °F 3.9 °F 1006.3 in WSW 27.4 mph 35.4 mph 82 % 0.0 in
01:03 6.9 °F 4.2 °F 1006.3 in West 19.5 mph 37.0 mph 83 % 0.0 in
01:09 6.8 °F 4.3 °F 1006.3 in West 24.1 mph 30.6 mph 84 % 0.0 in
01:15 6.9 °F 4.2 °F 1006.7 in WNW 24.1 mph 35.4 mph 83 % 0.0 in
01:27 7.2 °F 3.6 °F 1006.7 in WSW 14.3 mph 30.6 mph 78 % 0.0 in
01:33 7.1 °F 3.7 °F 1006.7 in WSW 13.0 mph 22.5 mph 79 % 0.0 in
01:39 7.1 °F 3.9 °F 1006.3 in WNW 22.7 mph 27.4 mph 80 % 0.0 in
01:45 7.0 °F 4.0 °F 1006.7 in West 14.3 mph 20.9 mph 81 % 0.0 in
01:57 7.0 °F 3.8 °F 1007.0 in WNW 17.7 mph 30.6 mph 80 % 0.0 in
02:03 7.1 °F 3.7 °F 1007.0 in West 25.9 mph 29.0 mph 79 % 0.0 in
02:09 7.1 °F 3.2 °F 1007.0 in West 33.8 mph 38.6 mph 76 % 0.0 in
02:15 7.1 °F 3.3 °F 1007.0 in WSW 20.9 mph 30.6 mph 77 % 0.0 in
02:23 7.1 °F 2.8 °F 1007.0 in West 19.5 mph 43.4 mph 74 % 0.0 in
02:29 7.1 °F 2.8 °F 1007.0 in West 17.7 mph 38.6 mph 74 % 0.0 in
02:35 6.9 °F 2.6 °F 1007.0 in WNW 14.3 mph 32.2 mph 74 % 0.0 in
02:41 6.9 °F 2.6 °F 1007.3 in WNW 22.7 mph 35.4 mph 74 % 0.0 in
02:47 6.9 °F 2.8 °F 1007.3 in West 24.1 mph 33.8 mph 75 % 0.0 in
02:53 6.9 °F 2.6 °F 1007.3 in WSW 22.7 mph 32.2 mph 74 % 0.0 in
02:59 6.9 °F 2.6 °F 1007.7 in West 22.7 mph 30.6 mph 74 % 0.0 in
03:05 6.8 °F 2.5 °F 1008.0 in WNW 4.7 mph 29.0 mph 74 % 0.0 in
03:11 5.7 °F 2.7 °F 1008.7 in WNW 19.5 mph 33.8 mph 81 % 0.0 in
03:23 3.8 °F 1.7 °F 1009.0 in WNW 28.8 mph 64.4 mph 86 % 1.0 in
03:29 3.4 °F 1.8 °F 1009.0 in WSW 19.5 mph 32.2 mph 89 % 1.5 in
03:35 3.1 °F 1.6 °F 1008.7 in WNW 19.5 mph 33.8 mph 90 % 1.5 in
03:41 3.1 °F 1.5 °F 1008.4 in West 13.0 mph 30.6 mph 89 % 1.8 in
03:51 3.3 °F 1.5 °F 1008.7 in WNW 20.9 mph 37.0 mph 88 % 1.8 in
03:57 3.5 °F 1.7 °F 1008.7 in WNW 27.4 mph 37.0 mph 88 % 1.8 in
04:03 3.5 °F 1.9 °F 1008.7 in WNW 16.3 mph 33.8 mph 89 % 2.0 in
04:09 3.4 °F 1.8 °F 1008.4 in WSW 14.3 mph 35.4 mph 89 % 2.0 in
04:17 3.5 °F 1.9 °F 1009.0 in WNW 19.5 mph 29.0 mph 89 % 1.5 in
04:23 3.7 °F 1.9 °F 1009.4 in West 24.1 mph 27.4 mph 88 % 1.0 in
04:29 3.9 °F 1.8 °F 1009.0 in WSW 24.1 mph 29.0 mph 86 % 0.5 in
04:37 4.0 °F 1.5 °F 1009.4 in West 19.5 mph 35.4 mph 84 % 0.3 in
04:43 3.9 °F 1.3 °F 1009.4 in West 20.9 mph 30.6 mph 83 % 0.3 in
04:49 3.9 °F 1.3 °F 1009.7 in West 16.3 mph 35.4 mph 83 % 0.3 in
04:57 3.8 °F 1.3 °F 1009.7 in WNW 17.7 mph 24.1 mph 84 % 0.3 in
05:03 3.9 °F 1.4 °F 1010.0 in West 6.4 mph 27.4 mph 84 % 0.0 in
05:09 3.9 °F 1.6 °F 1010.0 in WNW 9.7 mph 29.0 mph 85 % 0.0 in
05:15 3.9 °F 1.6 °F 1010.0 in West 24.1 mph 33.8 mph 85 % 0.0 in
05:25 4.1 °F 1.8 °F 1010.4 in West 14.3 mph 24.1 mph 85 % 0.0 in
05:31 4.2 °F 1.9 °F 1010.4 in WNW 27.4 mph 27.4 mph 85 % 0.0 in
05:41 4.2 °F 1.7 °F 1010.0 in West 17.7 mph 27.4 mph 84 % 0.0 in
05:47 4.2 °F 1.9 °F 1010.7 in WSW 14.3 mph 32.2 mph 85 % 0.0 in
05:53 4.1 °F 2.0 °F 1010.7 in WSW 27.4 mph 29.0 mph 86 % 0.0 in
05:59 4.1 °F 2.0 °F 1010.7 in WNW 16.3 mph 22.5 mph 86 % 0.0 in
06:05 4.1 °F 2.0 °F 1010.7 in West 28.8 mph 29.0 mph 86 % 0.0 in
06:11 4.2 °F 1.9 °F 1010.7 in WSW 16.3 mph 30.6 mph 85 % 0.0 in
06:21 4.2 °F 1.9 °F 1010.7 in WSW 9.7 mph 25.7 mph 85 % 0.0 in
06:27 4.3 °F 2.0 °F 1010.7 in West 13.0 mph 25.7 mph 85 % 0.0 in
06:33 4.2 °F 1.9 °F 1010.7 in West 20.9 mph 33.8 mph 85 % 0.0 in
06:39 4.2 °F 1.9 °F 1010.7 in WSW 17.7 mph 32.2 mph 85 % 0.0 in
06:45 4.2 °F 1.7 °F 1011.1 in West 32.0 mph 32.2 mph 84 % 0.0 in
06:51 4.2 °F 1.7 °F 1011.1 in WNW 14.3 mph 33.8 mph 84 % 0.0 in
06:57 4.2 °F 1.6 °F 1011.4 in West 22.7 mph 25.7 mph 83 % 0.0 in
07:03 4.2 °F 1.4 °F 1011.4 in WSW 17.7 mph 29.0 mph 82 % 0.0 in
07:09 4.3 °F 1.5 °F 1011.7 in WNW 13.0 mph 27.4 mph 82 % 0.0 in
07:15 4.4 °F 1.4 °F 1011.7 in West 9.7 mph 25.7 mph 81 % 0.0 in
07:27 4.4 °F 1.4 °F 1011.7 in West 19.5 mph 27.4 mph 81 % 0.0 in
07:35 4.5 °F 1.4 °F 1012.1 in West 19.5 mph 27.4 mph 80 % 0.0 in
07:41 4.4 °F 1.4 °F 1012.4 in West 22.7 mph 27.4 mph 81 % 0.0 in
07:47 4.5 °F 1.4 °F 1012.1 in WSW 17.7 mph 32.2 mph 80 % 0.0 in
07:53 4.5 °F 1.5 °F 1012.4 in WSW 25.9 mph 30.6 mph 81 % 0.0 in
08:03 4.4 °F 1.4 °F 1012.4 in West 20.9 mph 32.2 mph 81 % 0.0 in
08:09 4.5 °F 1.4 °F 1012.8 in West 11.1 mph 22.5 mph 80 % 0.0 in
08:17 4.6 °F 1.3 °F 1012.8 in West 28.8 mph 29.0 mph 79 % 0.0 in
08:23 4.6 °F 1.3 °F 1012.8 in West 20.9 mph 33.8 mph 79 % 0.0 in
08:29 4.6 °F 1.3 °F 1013.1 in West 22.7 mph 27.4 mph 79 % 0.0 in
08:35 4.6 °F 1.3 °F 1012.8 in West 24.1 mph 32.2 mph 79 % 0.0 in
08:41 4.6 °F 1.3 °F 1013.1 in West 13.0 mph 30.6 mph 79 % 0.0 in
08:53 4.6 °F 1.3 °F 1013.4 in West 13.0 mph 22.5 mph 79 % 0.0 in
08:59 4.7 °F 1.2 °F 1013.8 in WNW 19.5 mph 37.0 mph 78 % 0.0 in
09:09 4.8 °F 1.3 °F 1014.1 in West 20.9 mph 25.7 mph 78 % 0.0 in
09:15 4.7 °F 1.4 °F 1014.4 in West 17.7 mph 17.7 mph 79 % 0.0 in
09:21 4.6 °F 1.4 °F 1014.4 in West 22.7 mph 30.6 mph 80 % 0.0 in
09:27 4.7 °F 1.4 °F 1014.4 in West 13.0 mph 27.4 mph 79 % 0.0 in
09:34 4.6 °F 1.4 °F 1014.8 in WNW 14.3 mph 30.6 mph 80 % 0.0 in
09:40 4.5 °F 1.5 °F 1014.8 in West 11.1 mph 17.7 mph 81 % 0.0 in
09:46 4.5 °F 1.5 °F 1015.1 in WNW 16.3 mph 24.1 mph 81 % 0.0 in
09:52 4.6 °F 1.4 °F 1015.1 in West 19.5 mph 32.2 mph 80 % 0.0 in
09:58 4.6 °F 1.4 °F 1015.5 in West 17.7 mph 25.7 mph 80 % 0.0 in
10:04 4.5 °F 1.5 °F 1015.5 in West 27.4 mph 30.6 mph 81 % 0.0 in
10:10 4.6 °F 1.6 °F 1015.5 in WNW 11.1 mph 35.4 mph 81 % 0.0 in
10:16 4.7 °F 1.5 °F 1015.8 in West 14.3 mph 30.6 mph 80 % 0.0 in
10:28 4.8 °F 1.6 °F 1015.8 in West 13.0 mph 27.4 mph 80 % 0.0 in
10:34 4.9 °F 1.6 °F 1016.1 in WSW 24.1 mph 33.8 mph 79 % 0.0 in
10:40 4.9 °F 1.6 °F 1016.1 in WNW 19.5 mph 38.6 mph 79 % 0.0 in
10:46 4.9 °F 1.6 °F 1016.1 in WNW 25.9 mph 37.0 mph 79 % 0.0 in
10:52 4.9 °F 1.7 °F 1016.1 in West 16.3 mph 35.4 mph 80 % 0.0 in
11:00 5.0 °F 1.8 °F 1016.5 in West 22.7 mph 25.7 mph 80 % 0.0 in
11:06 5.1 °F 1.9 °F 1016.8 in WNW 14.3 mph 29.0 mph 80 % 0.0 in
11:12 4.8 °F 2.0 °F 1016.8 in WSW 24.1 mph 35.4 mph 82 % 0.0 in
11:18 4.7 °F 2.1 °F 1016.8 in WNW 22.7 mph 22.7 mph 83 % 0.0 in
11:24 4.7 °F 2.2 °F 1017.2 in West 14.3 mph 20.9 mph 84 % 0.0 in
11:32 4.9 °F 2.1 °F 1017.2 in WSW 19.5 mph 27.4 mph 82 % 0.0 in
11:38 5.1 °F 2.3 °F 1017.5 in SW 14.3 mph 20.9 mph 82 % 0.0 in
11:46 5.2 °F 2.4 °F 1017.5 in West 19.5 mph 27.4 mph 82 % 0.0 in
11:52 5.2 °F 2.5 °F 1017.5 in West 24.1 mph 25.7 mph 83 % 0.0 in
11:58 5.1 °F 2.6 °F 1017.8 in West 14.3 mph 22.5 mph 84 % 0.0 in
12:08 5.2 °F 2.2 °F 1017.5 in West 17.7 mph 27.4 mph 81 % 0.0 in
12:14 5.4 °F 2.4 °F 1017.5 in West 7.9 mph 27.4 mph 81 % 0.0 in
12:20 5.6 °F 2.1 °F 1017.5 in WNW 25.9 mph 33.8 mph 78 % 0.0 in
12:26 5.7 °F 2.2 °F 1017.5 in WNW 9.7 mph 29.0 mph 78 % 0.0 in
12:32 5.8 °F 2.1 °F 1017.8 in WNW 22.7 mph 35.4 mph 77 % 0.0 in
12:40 5.7 °F 1.6 °F 1017.8 in West 16.3 mph 29.0 mph 75 % 0.0 in
12:50 6.2 °F 2.3 °F 1017.8 in WNW 16.3 mph 20.9 mph 76 % 0.0 in
12:56 6.2 °F 1.5 °F 1017.8 in WNW 17.7 mph 22.5 mph 72 % 0.0 in
13:02 6.2 °F 1.5 °F 1017.8 in West 17.7 mph 29.0 mph 72 % 0.0 in
13:08 6.2 °F 1.5 °F 1017.8 in WNW 17.7 mph 22.5 mph 72 % 0.0 in
13:18 6.6 °F 1.9 °F 1017.8 in West 19.5 mph 30.6 mph 72 % 0.0 in
13:24 6.8 °F 1.9 °F 1017.8 in WNW 16.3 mph 29.0 mph 71 % 0.0 in
13:36 6.9 °F 1.6 °F 1017.8 in WNW 22.7 mph 32.2 mph 69 % 0.0 in
13:42 6.9 °F 1.4 °F 1017.8 in NW 25.9 mph 43.4 mph 68 % 0.0 in
13:48 6.8 °F 1.5 °F 1017.8 in WNW 25.9 mph 30.6 mph 69 % 0.0 in
13:54 6.8 °F 0.9 °F 1017.8 in NW 16.3 mph 35.4 mph 66 % 0.0 in
14:00 7.1 °F 1.8 °F 1017.8 in WNW 13.0 mph 20.9 mph 69 % 0.0 in
14:06 7.1 °F 2.0 °F 1017.8 in WNW 14.3 mph 30.6 mph 70 % 0.0 in
14:12 6.9 °F 1.6 °F 1017.8 in West 22.7 mph 29.0 mph 69 % 0.0 in
14:18 6.9 °F 1.2 °F 1017.8 in NW 30.6 mph 30.6 mph 67 % 0.0 in
14:30 6.8 °F 0.9 °F 1017.8 in WNW 22.7 mph 29.0 mph 66 % 0.0 in
14:38 6.8 °F 1.1 °F 1017.8 in WNW 17.7 mph 33.8 mph 67 % 0.0 in
14:44 6.9 °F 1.0 °F 1017.8 in WNW 35.2 mph 35.4 mph 66 % 0.0 in
14:50 6.8 °F 1.3 °F 1017.8 in West 13.0 mph 20.9 mph 68 % 0.0 in
14:56 6.9 °F 1.0 °F 1017.8 in WNW 16.3 mph 25.7 mph 66 % 0.0 in
15:02 7.1 °F 1.6 °F 1018.2 in West 11.1 mph 22.5 mph 68 % 0.0 in
15:08 7.1 °F 1.4 °F 1018.2 in WNW 17.7 mph 20.9 mph 67 % 0.0 in
15:14 7.1 °F 1.2 °F 1018.2 in West 25.9 mph 25.9 mph 66 % 0.0 in
15:20 7.4 °F 1.0 °F 1018.2 in WSW 30.6 mph 33.8 mph 64 % 0.0 in
15:26 7.3 °F 1.2 °F 1018.2 in WNW 14.3 mph 29.0 mph 65 % 0.0 in
15:32 7.3 °F 0.9 °F 1018.2 in WNW 19.5 mph 29.0 mph 64 % 0.0 in
15:38 7.3 °F 1.2 °F 1018.2 in West 19.5 mph 27.4 mph 65 % 0.0 in
15:46 7.3 °F 1.2 °F 1018.2 in WSW 16.3 mph 32.2 mph 65 % 0.0 in
15:52 7.3 °F 0.9 °F 1018.2 in WNW 24.1 mph 33.8 mph 64 % 0.0 in
15:58 7.3 °F 1.2 °F 1018.5 in West 20.9 mph 24.1 mph 65 % 0.0 in
16:04 7.3 °F 1.2 °F 1018.5 in WNW 14.3 mph 29.0 mph 65 % 0.0 in
16:10 7.3 °F 1.4 °F 1018.5 in West 13.0 mph 24.1 mph 66 % 0.0 in
16:16 7.2 °F 1.1 °F 1018.5 in WSW 24.1 mph 30.6 mph 65 % 0.0 in
16:22 7.0 °F 1.3 °F 1018.8 in West 11.1 mph 20.9 mph 67 % 0.0 in
16:28 6.9 °F 1.2 °F 1018.8 in NW 9.7 mph 24.1 mph 67 % 0.0 in
16:34 6.8 °F 1.1 °F 1018.8 in WNW 7.9 mph 27.4 mph 67 % 0.0 in
16:40 6.9 °F 1.2 °F 1018.8 in West 14.3 mph 25.7 mph 67 % 0.0 in
16:46 6.9 °F 1.4 °F 1018.8 in WNW 9.7 mph 20.9 mph 68 % 0.0 in
16:52 6.8 °F 1.3 °F 1018.8 in WSW 11.1 mph 19.3 mph 68 % 0.0 in
16:58 6.7 °F 1.6 °F 1018.8 in West 9.7 mph 11.3 mph 70 % 0.0 in
17:04 6.6 °F 1.7 °F 1018.8 in WSW 14.3 mph 17.7 mph 71 % 0.0 in
17:10 6.4 °F 1.5 °F 1019.2 in West 11.1 mph 14.5 mph 71 % 0.0 in
17:16 6.4 °F 1.5 °F 1019.2 in West 11.1 mph 14.5 mph 71 % 0.0 in
17:25 6.2 °F 1.3 °F 1019.2 in WSW 14.3 mph 17.7 mph 71 % 0.0 in
17:31 6.2 °F 1.3 °F 1019.2 in West 9.7 mph 17.7 mph 71 % 0.0 in
17:38 6.2 °F 1.3 °F 1019.2 in WSW 11.1 mph 16.1 mph 71 % 0.0 in
17:46 6.2 °F 1.3 °F 1019.5 in West 7.9 mph 17.7 mph 71 % 0.0 in
17:52 6.2 °F 1.3 °F 1019.5 in WSW 9.7 mph 16.1 mph 71 % 0.0 in
17:58 6.2 °F 1.3 °F 1019.5 in West 6.4 mph 12.9 mph 71 % 0.0 in
18:04 6.3 °F 1.4 °F 1019.5 in SW 9.7 mph 12.9 mph 71 % 0.0 in
18:12 6.3 °F 1.6 °F 1019.5 in SW 9.7 mph 12.9 mph 72 % 0.0 in
18:20 6.2 °F 1.7 °F 1019.5 in SW 11.1 mph 11.3 mph 73 % 0.0 in
18:26 6.2 °F 1.9 °F 1019.5 in WSW 9.7 mph 17.7 mph 74 % 0.0 in
18:32 6.1 °F 1.8 °F 1019.2 in WSW 7.9 mph 16.1 mph 74 % 0.0 in
18:40 5.9 °F 1.8 °F 1019.5 in SW 4.7 mph 16.1 mph 75 % 0.0 in
18:46 5.9 °F 1.8 °F 1019.2 in SW 6.4 mph 17.7 mph 75 % 0.0 in
18:52 5.8 °F 1.9 °F 1019.5 in SW 6.4 mph 14.5 mph 76 % 0.0 in
18:58 5.7 °F 2.0 °F 1019.5 in SW 6.4 mph 12.9 mph 77 % 0.0 in
19:04 5.6 °F 2.1 °F 1019.5 in SW 9.7 mph 11.3 mph 78 % 0.0 in
19:10 5.5 °F 2.0 °F 1019.5 in SW 1.4 mph 11.3 mph 78 % 0.0 in
19:16 5.3 °F 2.0 °F 1019.5 in SSW 11.1 mph 14.5 mph 79 % 0.0 in
19:22 5.3 °F 2.0 °F 1019.5 in SW 9.7 mph 14.5 mph 79 % 0.0 in
19:28 5.2 °F 1.9 °F 1019.5 in SW 14.3 mph 14.5 mph 79 % 0.0 in
19:34 5.2 °F 1.9 °F 1019.5 in WSW 7.9 mph 16.1 mph 79 % 0.0 in
19:40 5.2 °F 2.0 °F 1019.5 in WSW 7.9 mph 19.3 mph 80 % 0.0 in
19:46 5.2 °F 2.0 °F 1019.5 in SSW 9.7 mph 19.3 mph 80 % 0.0 in
19:52 5.1 °F 1.9 °F 1019.5 in SW 11.1 mph 17.7 mph 80 % 0.0 in
20:02 5.1 °F 1.9 °F 1019.5 in WNW 7.9 mph 17.7 mph 80 % 0.0 in
20:08 4.9 °F 1.9 °F 1019.5 in SW 9.7 mph 12.9 mph 81 % 0.0 in
20:14 4.9 °F 1.9 °F 1019.5 in WSW 6.4 mph 19.3 mph 81 % 0.0 in
20:20 5.1 °F 1.9 °F 1019.5 in WSW 13.0 mph 20.9 mph 80 % 0.0 in
20:27 5.2 °F 1.9 °F 1019.5 in WSW 7.9 mph 20.9 mph 79 % 0.0 in
20:32 5.4 °F 2.1 °F 1019.5 in West 13.0 mph 24.1 mph 79 % 0.0 in
20:41 5.4 °F 2.1 °F 1019.5 in West 9.7 mph 20.9 mph 79 % 0.0 in
20:47 5.3 °F 2.0 °F 1019.5 in WSW 7.9 mph 19.3 mph 79 % 0.0 in
20:53 5.2 °F 1.9 °F 1019.5 in South 9.7 mph 17.7 mph 79 % 0.0 in
20:59 5.2 °F 2.0 °F 1019.5 in WSW 16.3 mph 19.3 mph 80 % 0.0 in
21:05 5.0 °F 1.8 °F 1019.5 in WSW 6.4 mph 16.1 mph 80 % 0.0 in
21:11 4.9 °F 1.9 °F 1019.5 in WSW 24.1 mph 24.1 mph 81 % 0.0 in
21:17 4.9 °F 1.9 °F 1019.2 in SW 13.0 mph 27.4 mph 81 % 0.0 in
21:23 4.9 °F 1.9 °F 1019.5 in SW 11.1 mph 22.5 mph 81 % 0.0 in
21:29 4.9 °F 2.1 °F 1019.2 in SW 14.3 mph 25.7 mph 82 % 0.0 in
21:37 4.7 °F 2.1 °F 1019.2 in WSW 16.3 mph 25.7 mph 83 % 0.0 in
21:43 4.7 °F 2.1 °F 1018.8 in WSW 13.0 mph 19.3 mph 83 % 0.0 in
21:49 4.8 °F 2.2 °F 1018.8 in West 11.1 mph 25.7 mph 83 % 0.0 in
21:55 4.7 °F 2.2 °F 1018.8 in SW 7.9 mph 20.9 mph 84 % 0.0 in
22:01 4.7 °F 2.2 °F 1018.8 in WSW 19.5 mph 24.1 mph 84 % 0.0 in
22:07 4.8 °F 2.3 °F 1019.5 in West 17.7 mph 32.2 mph 84 % 0.0 in
22:13 4.8 °F 2.3 °F 1019.5 in WSW 13.0 mph 20.9 mph 84 % 0.0 in
22:19 4.8 °F 2.3 °F 1019.5 in WSW 9.7 mph 19.3 mph 84 % 0.0 in
22:21 4.9 °F 2.4 °F 1019.5 in WSW 14.3 mph 25.7 mph 84 % 0.0 in
22:27 5.0 °F 2.5 °F 1019.9 in SW 9.7 mph 24.1 mph 84 % 0.0 in
22:33 5.1 °F 2.6 °F 1019.9 in WSW 16.3 mph 19.3 mph 84 % 0.0 in
22:37 5.1 °F 2.6 °F 1019.5 in WSW 19.5 mph 22.5 mph 84 % 0.0 in
22:39 5.1 °F 2.6 °F 1019.9 in WSW 13.0 mph 17.7 mph 84 % 0.0 in
22:41 5.1 °F 2.6 °F 1019.5 in West 13.0 mph 24.1 mph 84 % 0.0 in
22:47 5.1 °F 2.8 °F 1019.2 in WSW 19.5 mph 19.5 mph 85 % 0.0 in
22:53 5.2 °F 2.9 °F 1019.2 in WSW 17.7 mph 27.4 mph 85 % 0.0 in
23:05 5.1 °F 2.8 °F 1018.8 in SW 7.9 mph 17.7 mph 85 % 0.0 in
23:11 4.9 °F 2.8 °F 1018.8 in West 13.0 mph 24.1 mph 86 % 0.0 in
23:13 4.9 °F 2.8 °F 1018.8 in SW 20.9 mph 24.1 mph 86 % 0.0 in
23:19 5.0 °F 2.9 °F 1018.8 in SSW 14.3 mph 24.1 mph 86 % 0.0 in
23:25 5.1 °F 3.1 °F 1018.8 in West 19.5 mph 29.0 mph 87 % 0.0 in
23:27 5.1 °F 3.1 °F 1018.8 in SW 13.0 mph 25.7 mph 87 % 0.0 in
23:33 5.2 °F 3.2 °F 1018.8 in SW 17.7 mph 17.7 mph 87 % 0.0 in
23:39 5.2 °F 3.2 °F 1018.8 in West 16.3 mph 20.9 mph 87 % 0.0 in
23:45 5.2 °F 3.2 °F 1018.8 in SW 13.0 mph 22.5 mph 87 % 0.0 in
23:51 5.3 °F 3.5 °F 1018.8 in SW 6.4 mph 22.5 mph 88 % 0.0 in
23:57 5.3 °F 3.5 °F 1018.8 in WSW 14.3 mph 24.1 mph 88 % 0.0 in
Meteo18
Compliments of Weather Underground - 4 mb

Script developed by  Jim McMurry - jmcmurry@mwt.net Adapted for the template by  Wim van der Kuil - Leuven-Template.eu

You find our weather info also at:

European Weather Network

Weather Underground

Equipment we use:

Weather-station
Davis Vue

Weather-program
Meteobridge

Weather-server
Raspberry PI 2 B+

Provider
1 and 1

Davis Vue

Meteobridge

Raspberry PI 2 B+

1 and 1